Location: Hopewell Observatory
(38.8698°N, 77.6988°W)
Time: 03:08:29
(UTC-04:00)

Cosmos 540 Rocket - Pass Details

Date: 26 May 2018
Orbit: 741 x 753 km, 74.1° (Epoch: 14 August)

Event Time Altitude Azimuth Distance (km) Brightness Sun altitude
Exits shadow 22:22:58 - 203° (SSW) 2,468 5.9 -18.5°
Reaches altitude 10° 22:23:29 10° 203° (SSW) 2,266 5.7 -18.6°
Maximum altitude 22:28:37 75° 289° (WNW) 783 3.6 -19.2°
Drops below altitude 10° 22:33:48 10° 15° (NNE) 2,283 6.4 -19.9°
Sets 22:36:11 0° 17° (NNE) 3,212 7.2 -20.2°
